Location: ?
(35.4214°N, 139.3011°E)
Time: 01:13:19
(UTC+00:00)

Daily predictions for brighter satellites

Satellite Brightness Start Highest point End
(mag) Time Altitude Azimuth Time Altitude Azimuth Time Altitude Azimuth
NOSS 3-3 (A) 4.3 10:16:56 10° SW 10:22:35 70° WNW 10:28:54 10° NNE
NOSS 3-3 (C) 4.3 10:17:01 10° SW 10:22:41 71° WNW 10:29:00 10° NNE
Cosmos 2333 Rocket 2.3 10:17:44 10° SSW 10:23:25 90° WNW 10:29:10 10° NNE
DMSP B5D2-2 4.2 10:21:15 10° NNE 10:26:23 58° E 10:31:29 10° S
CZ-4 R/B 4.3 10:25:40 10° WSW 10:27:30 13° W 10:29:20 10° WNW
Cosmos 2278 Rocket 3.8 10:27:41 10° NNE 10:31:38 19° NE 10:35:34 10° E
ISS -2.0 10:30:16 10° SSE 10:32:13 15° SE 10:34:10 10° E
NOSS 0 Rocket 4.1 10:31:15 10° S 10:37:06 48° ESE 10:43:00 10° NE
SL-16 R/B 4.0 10:39:25 10° ESE 10:40:38 11° E 10:41:51 10° E
Ariane Rocket 3.3 10:37:42 10° S 10:42:46 69° WSW 10:47:51 10° NNW
ATLAS 2AS CENTAUR R/B 4.3 10:39:36 10° N 10:45:25 24° NE 10:50:54 10° E
Cosmos 1758 Rocket 4.2 10:44:28 10° SSW 10:48:55 61° W 10:53:21 10° N
CZ-2C R/B 3.8 10:44:49 10° NNE 10:49:37 76° ESE 10:54:19 10° S
Cosmos 1400 Rocket 2.7 10:45:43 10° N 10:49:37 76° E 10:53:28 10° SSE
SL-08 RB Rocket 4.2 10:47:32 10° S 10:51:56 59° W 10:56:23 10° NNW
Cosmos 1703 4.0 10:48:25 10° SSW 10:52:12 54° W 10:56:01 10° N
CZ-3A R/B 4.3 10:47:13 10° SW 10:59:14 20° S 11:03:37 13° SE
Cosmos 44 3.5 10:55:59 10° S 10:59:55 37° ESE 11:03:56 10° NE
MetOp-A 4.3 10:57:23 10° S 11:02:43 79° WSW 11:08:06 10° NNW
EP 3 4.3 11:02:46 10° SW 11:05:05 57° WNW 11:07:06 10° NNE
USA 186 4.2 11:02:51 10° SSW 11:05:19 20° W 11:07:44 10° NW
ATLAS CENTAUR R/B 1.2 11:03:03 10° NW 11:06:41 69° WSW 11:09:22 17° SSE
Cosmos 1680 Rocket 3.7 11:06:14 10° S 11:11:20 50° ESE 11:16:28 10° NNE
Cosmos 1953 Rocket 4.0 11:09:11 10° SSW 11:13:27 61° W 11:17:44 10° N
GPS 2-04 Rocket1 4.4 11:12:21 10° SSW 11:13:08 13° S 11:13:08 13° S
DELTA 2 R/B (1) 4.2 11:09:19 10° WNW 11:14:46 55° N 11:20:16 10° ENE
Cosmos 1980 3.6 11:11:23 10° SSW 11:17:00 84° ESE 11:22:41 10° NNE
Hubble Space Telescope 1.8 11:15:07 10° WSW 11:18:43 29° S 11:20:02 24° SSE
Resurs 01 Rocket 1.5 11:16:41 18° SSE 11:19:55 77° ENE 11:24:20 10° N
CZ-2C R/B 4.1 11:17:31 10° N 11:22:24 39° WNW 11:27:11 10° SW
Cosmos 2219 Rocket 4.2 11:17:43 10° WSW 11:22:35 30° WNW 11:27:28 10° N
Cosmos 2074 Rocket 4.3 11:18:05 15° SSE 11:22:54 47° E 11:28:48 10° NNE
Cosmos 158 Rocket 3.8 11:19:44 10° S 11:24:30 62° ESE 11:29:21 10° NNE
OAO 3 Copernicus 4.3 11:21:56 10° W 11:27:02 87° S 11:30:39 19° E
Atlas Centaur 2 3.7 11:24:55 10° WSW 11:27:53 16° SSW 11:29:35 14° S
Cosmos 1842 Rocket 4.0 11:24:31 10° N 11:28:38 41° E 11:30:10 30° SE
BREEZE M DEB (TANK) 3.7 11:28:05 10° NNW 11:29:48 18° NNE 11:30:19 16° NE
Cosmos 923 Rocket 4.2 11:26:56 10° SSW 11:32:10 75° WNW 11:37:28 10° NNE
Cosmos-2242 4.5 11:28:53 10° NNW 11:32:53 36° W 11:36:52 10° SSW
Cosmos 2237 Rocket 2.4 11:27:26 10° SSW 11:33:06 76° WNW 11:38:49 10° NNE
Cosmos 1869 4.0 11:30:36 10° N 11:34:25 39° E 11:35:22 33° ESE
ERS-1 Rocket 4.1 11:36:28 23° E 11:38:04 27° ENE 11:42:17 10° NNE
Cosmos 2221 2.9 11:34:27 10° N 11:38:38 45° E 11:39:48 36° ESE
Cosmos 2181 Rocket 4.0 11:35:21 10° N 11:41:37 85° W 11:46:10 19° S
USA 81 4.3 11:37:20 10° S 11:42:34 70° W 11:47:51 10° N
BREEZE-M R/B 4.3 11:32:04 10° NW 11:43:48 81° SW 11:46:44 32° SE
USA 245 3.6 11:43:09 41° SE 11:44:19 59° ENE 11:49:02 10° N
Gbstr 26 Del rocket 4.2 11:40:53 10° WSW 11:44:28 36° NW 11:47:57 10° NNE
SAR-Lupe-2 3.9 11:41:30 10° NNE 11:44:55 44° E 11:44:55 44° E
Meteor 2-17 Rocket 4.4 11:42:46 23° SSE 11:46:31 63° E 11:52:29 10° NNE
SPOT 1/Viking Rocket 3.7 11:49:38 36° SE 11:51:29 56° ENE 11:56:33 10° N
TIMED 4.4 11:51:14 25° SSW 11:53:42 86° ESE 11:58:05 10° NNE
OAO 2 Rocket 4.4 11:49:20 10° W 11:53:54 30° SSW 11:55:00 28° S
